Weather in Okushiri

Japan     42°09′18″N   139°28′25″E
temp.,
°C
wind,
m/s
gust,
m/s
humid.,
%
clouds,
%
prec.,
mm/h
press.,
hPa
HPBL,
m
28 november, sun
sun2800:00+7nnw11115696 0.1 10262016
03:00+7nw9105620 0.1 10271727
06:00+7nw89585 0.0 10281604
09:00+7wnw99595 0.0 10291377
12:00+7wnw88585 0.0 10291190
15:00+8w66535 0.0 10291230
18:00+8wsw77575 0.0 10291069
21:00+8wsw99635 0.0 10291120
29 november, mon
mon2900:00+9wsw910688 0.0 10281265
03:00+9wsw10117177 0.0 10261202
06:00+10wsw121371100 0.0 10251216
09:00+10sw131472100 0.1 10241272
12:00+11sw131574100 0.0 10231177
15:00+11sw131680100 0.1 10221174
18:00+11wsw1215822 0.3 10221228
21:00+10w911684 0.3 1022974
30 november, tue
tue3000:00+10w89695 0.0 1022891
03:00+10w676954 0.0 1022866
06:00+9sw4568100 0.0 1021748
09:00+10s4567100 0.0 1021588
12:00+10se91184100 0.0 1017507
15:00+12ssw91282100 0.7 1014714
18:00+12sse111478100 0.6 10111054
21:00+12sse111577100 0.6 10071031
1 december, wed
wed100:00+12sse152064100 0.2 1003997
03:00+11sse182680100 1.9 9971456
06:00+12s172683100 2.2 9941400
09:00+10sw172480100 5.0 9931698
12:00+7sw192373100 0.4 9911661
15:00+4wsw182079100 0.5 9921554
18:00+3w161985100 0.4 9941782
21:00+2w171883100 1.9 9962120
2 december, thu
thu200:00+1w181985100 1.3 9972131
03:00+1w192087100 3.1 10002182
06:00+2wnw182064100 0.3 10032429
09:00+3w172060100 0.3 10062400
12:00+4w162360100 0.0 10072204
15:00+6w142057100 0.1 10082135
18:00+4wsw5678100 0.1 1009843
21:00+4sse789598 0.7 1009507